Location: Neuendettelsau
(49.2860°N, 10.7873°E)
Time: 15:52:37
(UTC+02:00)

ISS - Visible Passes

Search period start: 18 May 2025 00:00
Search period end: 28 May 2025 00:00
Orbit: 416 x 419 km, 51.6° (Epoch: 18 May)

Date Brightness Start Highest point End Pass type
(mag) Time Alt. Az. Time Alt. Az. Time Alt. Az.
18 May -3.8 23:04:45 10° WNW 23:08:07 85° NNE 23:09:42 29° ESE visible
19 May -1.4 00:41:50 10° W 00:42:37 15° W 00:42:37 15° W visible
19 May -3.5 22:16:44 10° WNW 22:20:05 69° NNE 22:23:18 11° E visible
19 May -2.8 23:53:37 10° W 23:56:12 34° SW 23:56:12 34° SW visible
20 May -3.5 23:05:30 10° WNW 23:08:47 53° SSW 23:09:48 36° SSE visible
21 May -3.8 22:17:25 10° WNW 22:20:47 75° SSW 22:23:24 16° ESE visible
21 May -1.6 23:54:50 10° W 23:56:18 16° WSW 23:56:18 16° WSW visible
22 May -2.4 23:06:24 10° W 23:09:14 26° SW 23:09:55 24° SSW visible
23 May -2.9 22:18:07 10° W 22:21:16 37° SSW 22:23:33 16° SSE visible
24 May -1.4 23:08:07 10° WSW 23:09:24 12° SW 23:10:07 11° SSW visible
25 May -1.7 22:19:08 10° W 22:21:30 18° SW 22:23:47 10° S visible
